Regional Weather Roundup
Issued by NWS

Home | Current Version | Previous Version | Text Only | Print | Product List | Glossary Off
Versions: 1 2 3 4 5 6 7 8 9 10 11 12 13 14 15 16 17 18 19 20 21 22 23 24 25 26 27 28 29 30 31 32 33 34 35 36 37 38 39 40 41 42 43 44 45 46 47 48 49 50

275
ASUS43 KIND 170859
RWRIN

WEATHER ROUNDUP FOR INDIANA
NATIONAL WEATHER SERVICE INDIANAPOLIS IN
500 AM EDT THU AUG 17 2017

NOTE: "FAIR" INDICATES FEW OR NO CLOUDS BELOW 12,000 FEET WITH NO
SIGNIFICANT WEATHER AND/OR OBSTRUCTIONS TO VISIBILITY.

* - STATION DOES NOT REPORT WEATHER SUCH AS PRECIPITATION OR FOG.

+ - STATION NOT QUALITY CONTROLLED BY THE NATIONAL WEATHER SERVICE.
    USE DATA WITH CAUTION...ESPECIALLY DEWPOINT AND RELATIVE
    HUMIDITY OBSERVATIONS.

INZ001>003-010>013-019-020-171000-
NORTHWEST INDIANA

CITY           SKY/WX    TMP DP  RH WIND       PRES   REMARKS
MICHIGAN CITY+ PTCLDY    73  73 100 S7        29.82S
MONTICELLO +   CLOUDY    74  72  91 S8        29.85S
RENSSELAER +   CLEAR     70  64  83 S6        29.85R

$$

LMZ046-743>745-171000-
SOUTHERN LAKE MICHIGAN

STATION/POSITION TIME  TEMP    WIND        PRES    WAVE
                       AIR SEA DIR/SP/G            HT
                 (UTC) (F)     (DEG/KT/KT) (MB)    (FT)
BURNS HARBOR     0840   75     190/ 11/ 16 1009.8R
MICHIGAN CITY    0830   75     170/ 10/ 12   N/A
5NW MICH CITY    0850   76 74  200/ 10/ 12   N/A     1

$$

INZ004-005-014>016-021>024-171000-
NORTH CENTRAL INDIANA

CITY           SKY/WX    TMP DP  RH WIND       PRES   REMARKS
PERU/GRISSOM   CLOUDY    74  74 100 S9        29.87S
SOUTH BEND     NOT AVBL
WARSAW +       CLOUDY    72  72 100 CALM      29.87S

$$

INZ006>009-017-018-025>027-171000-
NORTHEAST INDIANA

CITY           SKY/WX    TMP DP  RH WIND       PRES   REMARKS
FORT WAYNE     LGT RAIN  73  70  90 S5        29.89S
KENDALLVILLE + LGT RAIN  70  70 100 S7        29.90S

$$

INZ028-029-035-036-043>045-051>053-171000-
WEST CENTRAL INDIANA

CITY           SKY/WX    TMP DP  RH WIND       PRES   REMARKS
LAFAYETTE      NOT AVBL
TERRE HAUTE    CLOUDY    71  69  93 S5        29.88F

$$

INZ030>032-037>040-046>048-054>057-064-065-171000-
CENTRAL INDIANA

CITY           SKY/WX    TMP DP  RH WIND       PRES   REMARKS
GREENWOOD *+   PTCLDY    74  70  88 S3        29.92S
INDIANAPOLIS   CLOUDY    75  72  90 S8        29.90S
-EAGLE CREEK   CLOUDY    76  72  87 S5        29.90S
KOKOMO +       CLOUDY    74  72  93 S7        29.89S
MT COMFORT *+  PTCLDY    73  72  94 S6        29.92S
SHELBYVILLE    MOCLDY    75  70  84 S7        29.91S

$$

INZ033-034-041-042-049-050-058-059-171000-
EAST CENTRAL INDIANA

CITY           SKY/WX    TMP DP  RH WIND       PRES   REMARKS
MUNCIE         CLOUDY    76  71  85 S3        29.91F
RICHMOND +     MOCLDY    70  70 100 S7        29.95S FOG

$$

INZ060-061-067>069-081>083-085>088-171000-
SOUTHWEST INDIANA

CITY           SKY/WX    TMP DP  RH WIND       PRES   REMARKS
EVANSVILLE     PTCLDY    77  74  90 S7        29.91S

$$

INZ062-063-066-070>080-084-089>092-171000-
SOUTH CENTRAL AND SOUTHEAST INDIANA

CITY           SKY/WX    TMP DP  RH WIND       PRES   REMARKS
BLOOMINGTON    CLOUDY    75  71  87 S7        29.92R
MADISON *+     MOCLDY    73  70  88 S5        29.97R
SEYMOUR +      CLEAR     73  72  94 S3        29.93R

$$





USA.gov is the U.S. government's official web portal to all federal, state and local government web resources and services.